Погода в Муонио

Финляндия     67°57′19″N   23°41′03″E
темп.,
°C
ветер,
м/с
пор.,
м/с
влажн.,
%
обл.,
%
осадки,
мм/ч
давл.,
гПа
погр.,
м
27 ноября, сб
сб2723:00−13св1195100 0.0 100421
02:00−14всв2196100 0.0 100515
05:00−15св119782 0.0 100711
08:00−17ссв119756 0.0 100910
11:00−18св119841 0.0 101010
14:00−19ссв119851 0.0 101210
17:00−19ссв119962 0.0 101210
20:00−20св1110034 0.0 10129
28 ноября, вс
вс2823:00−16в0097100 0.0 101125
02:00−14в1197100 0.1 101028
05:00−13в1196100 0.4 100960
08:00−15юв1198100 0.6 10099
11:00−16вюв1199100 0.1 100916
14:00−14ююв21096100 0.3 1008328
17:00−13ю31196100 0.1 1008399
20:00−13ю31196100 0.1 1008410
29 ноября, пн
пн2923:00−13ю41294100 0.0 1008431
02:00−12ю41393100 0.1 1008438
05:00−12ююз41294100 0.0 1008463
08:00−11ю41294100 0.1 1008481
11:00−10ююз41393100 0.1 1008649
14:00−10ююз31194100 0.3 1008611
17:00−10ю31195100 0.1 1008394
20:00−9ю2896100 0.4 1007302
30 ноября, вт
вт3023:00−9ю3994100 0.3 1007374
02:00−10ююв2995100 0.4 1006338
05:00−11юв129791 0.2 100650
08:00−13вюв119788 0.2 100564
11:00−15всв119894 0.0 100410
14:00−17св119880 0.0 10039
17:00−20с21100100 0.0 100216
20:00−17с2398100 0.0 100046
1 декабря, ср
ср123:00−16с2596100 0.0 999105
02:00−14с3791100 0.0 998181
05:00−12с41392100 0.1 996469
08:00−9ссв51488100 0.3 995610
11:00−7ссв51483100 0.0 996702
14:00−6ссв61485100 0.0 995917
17:00−6св71689100 0.2 9961451
20:00−5св81690100 0.9 9961553